Time,TemperatureF,DewpointF,PressureIn,WindDirection,WindDirectionDegrees,WindSpeedMPH,WindSpeedGustMPH,Humidity,HourlyPrecipIn,Conditions,Clouds,dailyrainin,SoftwareType,DateUTC
2013-05-19 00:00:00,54.4,52.1,30.34,WSW,257,3.0,5.0,92,0.00,,,0.00,HR-IXPWINDi_r2_v1.2.,2013-05-19 04:00:00,
2013-05-19 00:01:00,54.3,52.0,30.34,WSW,238,2.0,5.0,92,0.00,,,0.00,HR-IXPWINDi_r2_v1.2.,2013-05-19 04:01:00,
2013-05-19 00:06:00,54.0,51.7,30.34,WNW,284,1.0,5.0,92,0.00,,,0.00,HR-IXPWINDi_r2_v1.2.,2013-05-19 04:06:00,
2013-05-19 00:11:00,53.7,51.4,30.34,WNW,290,0.0,3.0,92,0.00,,,0.00,HR-IXPWINDi_r2_v1.2.,2013-05-19 04:11:00,
2013-05-19 00:16:00,53.4,51.4,30.34,WNW,283,0.0,3.0,93,0.00,,,0.00,HR-IXPWINDi_r2_v1.2.,2013-05-19 04:16:00,
2013-05-19 00:21:00,53.3,51.3,30.34,WNW,287,0.0,1.0,93,0.00,,,0.00,HR-IXPWINDi_r2_v1.2.,2013-05-19 04:21:00,
2013-05-19 00:27:00,53.2,51.2,30.34,WSW,256,1.0,2.0,93,0.00,,,0.00,HR-IXPWINDi_r2_v1.2.,2013-05-19 04:27:00,
2013-05-19 00:32:00,53.2,51.2,30.33,WSW,238,2.0,2.0,93,0.00,,,0.00,HR-IXPWINDi_r2_v1.2.,2013-05-19 04:32:00,
2013-05-19 00:37:00,53.0,51.0,30.33,WSW,246,1.0,2.0,93,0.00,,,0.00,HR-IXPWINDi_r2_v1.2.,2013-05-19 04:37:00,
2013-05-19 00:42:00,53.0,51.0,30.33,WSW,243,1.0,2.0,93,0.00,,,0.00,HR-IXPWINDi_r2_v1.2.,2013-05-19 04:42:00,
2013-05-19 00:47:00,53.1,51.4,30.33,SW,226,0.0,2.0,94,0.00,,,0.00,HR-IXPWINDi_r2_v1.2.,2013-05-19 04:47:00,
2013-05-19 00:52:00,52.9,50.9,30.34,SW,226,0.0,1.0,93,0.00,,,0.00,HR-IXPWINDi_r2_v1.2.,2013-05-19 04:52:00,
2013-05-19 00:57:00,52.3,50.3,30.33,SW,226,0.0,0.0,93,0.00,,,0.00,HR-IXPWINDi_r2_v1.2.,2013-05-19 04:57:00,
2013-05-19 01:02:00,52.3,50.6,30.34,West,276,0.0,1.0,94,0.00,,,0.00,HR-IXPWINDi_r2_v1.2.,2013-05-19 05:02:00,
2013-05-19 01:08:00,52.3,50.6,30.33,WNW,299,2.0,3.0,94,0.00,,,0.00,HR-IXPWINDi_r2_v1.2.,2013-05-19 05:08:00,
2013-05-19 01:13:00,52.4,50.7,30.33,West,271,3.0,4.0,94,0.00,,,0.00,HR-IXPWINDi_r2_v1.2.,2013-05-19 05:13:00,
2013-05-19 01:18:00,52.4,50.7,30.33,WNW,297,1.0,4.0,94,0.00,,,0.00,HR-IXPWINDi_r2_v1.2.,2013-05-19 05:18:00,
2013-05-19 01:23:00,52.3,50.6,30.33,WSW,255,0.0,4.0,94,0.00,,,0.00,HR-IXPWINDi_r2_v1.2.,2013-05-19 05:23:00,
2013-05-19 01:28:00,52.2,50.5,30.33,West,271,1.0,2.0,94,0.00,,,0.00,HR-IXPWINDi_r2_v1.2.,2013-05-19 05:28:00,
2013-05-19 01:33:00,52.1,50.4,30.33,West,267,1.0,2.0,94,0.00,,,0.00,HR-IXPWINDi_r2_v1.2.,2013-05-19 05:33:00,
2013-05-19 01:39:00,52.0,50.3,30.33,WNW,284,2.0,3.0,94,0.00,,,0.00,HR-IXPWINDi_r2_v1.2.,2013-05-19 05:39:00,
2013-05-19 01:44:00,51.9,50.2,30.33,West,275,4.0,4.0,94,0.00,,,0.00,HR-IXPWINDi_r2_v1.2.,2013-05-19 05:44:00,
2013-05-19 01:49:00,51.5,49.8,30.33,WSW,240,1.0,4.0,94,0.00,,,0.00,HR-IXPWINDi_r2_v1.2.,2013-05-19 05:49:00,
2013-05-19 01:54:00,51.4,49.7,30.33,West,263,0.0,4.0,94,0.00,,,0.00,HR-IXPWINDi_r2_v1.2.,2013-05-19 05:54:00,
2013-05-19 01:59:00,51.3,49.6,30.33,West,263,0.0,1.0,94,0.00,,,0.00,HR-IXPWINDi_r2_v1.2.,2013-05-19 05:59:00,
2013-05-19 02:05:00,51.2,49.5,30.33,West,263,0.0,1.0,94,0.00,,,0.00,HR-IXPWINDi_r2_v1.2.,2013-05-19 06:05:00,
2013-05-19 02:10:00,51.3,49.6,30.33,West,269,1.0,1.0,94,0.00,,,0.00,HR-IXPWINDi_r2_v1.2.,2013-05-19 06:10:00,
2013-05-19 02:15:00,51.4,49.7,30.33,West,274,0.0,2.0,94,0.00,,,0.00,HR-IXPWINDi_r2_v1.2.,2013-05-19 06:15:00,
2013-05-19 02:20:00,51.4,49.4,30.33,West,271,0.0,2.0,93,0.00,,,0.00,HR-IXPWINDi_r2_v1.2.,2013-05-19 06:20:00,
2013-05-19 02:25:00,51.3,49.6,30.33,West,271,0.0,0.0,94,0.00,,,0.00,HR-IXPWINDi_r2_v1.2.,2013-05-19 06:25:00,
2013-05-19 02:31:00,51.1,49.1,30.33,West,271,0.0,0.0,93,0.00,,,0.00,HR-IXPWINDi_r2_v1.2.,2013-05-19 06:31:00,
2013-05-19 02:36:00,50.7,48.7,30.33,West,271,0.0,0.0,93,0.00,,,0.00,HR-IXPWINDi_r2_v1.2.,2013-05-19 06:36:00,
2013-05-19 02:41:00,50.7,49.3,30.32,West,271,0.0,0.0,95,0.00,,,0.00,HR-IXPWINDi_r2_v1.2.,2013-05-19 06:41:00,
2013-05-19 02:46:00,51.2,49.8,30.33,West,271,0.0,0.0,95,0.00,,,0.00,HR-IXPWINDi_r2_v1.2.,2013-05-19 06:46:00,
2013-05-19 02:52:00,51.2,49.8,30.33,SW,236,0.0,0.0,95,0.00,,,0.00,HR-IXPWINDi_r2_v1.2.,2013-05-19 06:52:00,
2013-05-19 02:57:00,51.1,49.7,30.33,SW,233,0.0,0.0,95,0.00,,,0.00,HR-IXPWINDi_r2_v1.2.,2013-05-19 06:57:00,
2013-05-19 03:02:00,51.4,50.2,30.33,WSW,253,1.0,1.0,96,0.00,,,0.00,HR-IXPWINDi_r2_v1.2.,2013-05-19 07:02:00,
2013-05-19 03:07:00,51.7,50.5,30.33,SW,233,2.0,2.0,96,0.00,,,0.00,HR-IXPWINDi_r2_v1.2.,2013-05-19 07:07:00,
2013-05-19 03:13:00,51.7,50.5,30.33,WSW,246,1.0,2.0,96,0.00,,,0.00,HR-IXPWINDi_r2_v1.2.,2013-05-19 07:13:00,
2013-05-19 03:18:00,51.6,50.1,30.33,WSW,252,1.0,2.0,95,0.00,,,0.00,HR-IXPWINDi_r2_v1.2.,2013-05-19 07:18:00,
2013-05-19 03:23:00,51.4,50.0,30.33,West,264,0.0,1.0,95,0.00,,,0.00,HR-IXPWINDi_r2_v1.2.,2013-05-19 07:23:00,
2013-05-19 03:28:00,51.3,49.9,30.33,West,260,0.0,1.0,95,0.00,,,0.00,HR-IXPWINDi_r2_v1.2.,2013-05-19 07:28:00,
2013-05-19 03:33:00,50.9,49.5,30.33,West,260,0.0,1.0,95,0.00,,,0.00,HR-IXPWINDi_r2_v1.2.,2013-05-19 07:33:00,
2013-05-19 03:38:00,50.6,49.2,30.33,West,260,0.0,0.0,95,0.00,,,0.00,HR-IXPWINDi_r2_v1.2.,2013-05-19 07:38:00,
2013-05-19 03:44:00,51.0,49.8,30.33,WSW,253,1.0,1.0,96,0.00,,,0.00,HR-IXPWINDi_r2_v1.2.,2013-05-19 07:44:00,
2013-05-19 03:49:00,51.0,49.8,30.33,WSW,240,0.0,1.0,96,0.00,,,0.00,HR-IXPWINDi_r2_v1.2.,2013-05-19 07:49:00,
2013-05-19 03:54:00,50.9,49.7,30.33,WSW,257,1.0,2.0,96,0.00,,,0.00,HR-IXPWINDi_r2_v1.2.,2013-05-19 07:54:00,
2013-05-19 03:59:00,51.0,49.8,30.33,WSW,249,0.0,2.0,96,0.00,,,0.00,HR-IXPWINDi_r2_v1.2.,2013-05-19 07:59:00,
2013-05-19 04:05:00,50.8,49.4,30.33,WSW,249,0.0,1.0,95,0.00,,,0.00,HR-IXPWINDi_r2_v1.2.,2013-05-19 08:05:00,
2013-05-19 04:10:00,51.1,49.9,30.33,WSW,249,0.0,0.0,96,0.00,,,0.00,HR-IXPWINDi_r2_v1.2.,2013-05-19 08:10:00,
2013-05-19 04:15:00,51.2,50.0,30.34,WSW,256,0.0,1.0,96,0.00,,,0.00,HR-IXPWINDi_r2_v1.2.,2013-05-19 08:15:00,
2013-05-19 04:20:00,51.1,49.7,30.34,West,273,0.0,1.0,95,0.00,,,0.00,HR-IXPWINDi_r2_v1.2.,2013-05-19 08:20:00,
2013-05-19 04:25:00,51.0,49.6,30.34,West,273,0.0,1.0,95,0.00,,,0.00,HR-IXPWINDi_r2_v1.2.,2013-05-19 08:25:00,
2013-05-19 04:30:00,50.8,49.4,30.34,West,271,0.0,1.0,95,0.00,,,0.00,HR-IXPWINDi_r2_v1.2.,2013-05-19 08:30:00,
2013-05-19 04:36:00,50.6,49.2,30.34,West,270,0.0,0.0,95,0.00,,,0.00,HR-IXPWINDi_r2_v1.2.,2013-05-19 08:36:00,
2013-05-19 04:41:00,50.9,49.7,30.34,West,270,0.0,1.0,96,0.00,,,0.00,HR-IXPWINDi_r2_v1.2.,2013-05-19 08:41:00,
2013-05-19 04:46:00,51.1,49.9,30.34,West,270,0.0,1.0,96,0.00,,,0.00,HR-IXPWINDi_r2_v1.2.,2013-05-19 08:46:00,
2013-05-19 04:51:00,50.8,49.4,30.34,West,270,0.0,1.0,95,0.00,,,0.00,HR-IXPWINDi_r2_v1.2.,2013-05-19 08:51:00,
2013-05-19 04:56:00,50.4,49.0,30.34,West,270,0.0,0.0,95,0.00,,,0.00,HR-IXPWINDi_r2_v1.2.,2013-05-19 08:56:00,
2013-05-19 05:01:00,50.6,49.4,30.34,West,270,0.0,0.0,96,0.00,,,0.00,HR-IXPWINDi_r2_v1.2.,2013-05-19 09:01:00,
2013-05-19 05:07:00,51.0,49.8,30.34,West,270,0.0,0.0,96,0.00,,,0.00,HR-IXPWINDi_r2_v1.2.,2013-05-19 09:07:00,
2013-05-19 05:12:00,51.0,49.8,30.34,West,271,1.0,1.0,96,0.00,,,0.00,HR-IXPWINDi_r2_v1.2.,2013-05-19 09:12:00,
2013-05-19 05:17:00,50.8,49.4,30.35,West,271,0.0,1.0,95,0.00,,,0.00,HR-IXPWINDi_r2_v1.2.,2013-05-19 09:17:00,
2013-05-19 05:22:00,50.8,49.4,30.35,WSW,257,1.0,1.0,95,0.00,,,0.00,HR-IXPWINDi_r2_v1.2.,2013-05-19 09:22:00,
2013-05-19 05:28:00,50.9,49.5,30.35,West,274,0.0,1.0,95,0.00,,,0.00,HR-IXPWINDi_r2_v1.2.,2013-05-19 09:28:00,
2013-05-19 05:33:00,50.4,48.7,30.35,West,276,0.0,1.0,94,0.00,,,0.00,HR-IXPWINDi_r2_v1.2.,2013-05-19 09:33:00,
2013-05-19 05:38:00,50.3,48.9,30.35,West,276,0.0,0.0,95,0.00,,,0.00,HR-IXPWINDi_r2_v1.2.,2013-05-19 09:38:00,
2013-05-19 05:43:00,50.0,48.3,30.35,West,276,0.0,0.0,94,0.00,,,0.00,HR-IXPWINDi_r2_v1.2.,2013-05-19 09:43:00,
2013-05-19 05:48:00,49.7,48.3,30.35,West,276,0.0,0.0,95,0.00,,,0.00,HR-IXPWINDi_r2_v1.2.,2013-05-19 09:48:00,
2013-05-19 05:53:00,49.5,48.1,30.35,West,276,0.0,1.0,95,0.00,,,0.00,HR-IXPWINDi_r2_v1.2.,2013-05-19 09:53:00,
2013-05-19 05:59:00,49.7,48.3,30.35,West,276,0.0,1.0,95,0.00,,,0.00,HR-IXPWINDi_r2_v1.2.,2013-05-19 09:59:00,
2013-05-19 06:04:00,50.0,48.8,30.36,West,276,0.0,0.0,96,0.00,,,0.00,HR-IXPWINDi_r2_v1.2.,2013-05-19 10:04:00,
2013-05-19 06:09:00,50.1,48.9,30.36,West,276,0.0,0.0,96,0.00,,,0.00,HR-IXPWINDi_r2_v1.2.,2013-05-19 10:09:00,
2013-05-19 06:14:00,50.8,49.6,30.36,West,276,0.0,0.0,96,0.00,,,0.00,HR-IXPWINDi_r2_v1.2.,2013-05-19 10:14:00,
2013-05-19 06:20:00,51.3,50.4,30.36,West,275,0.0,0.0,97,0.00,,,0.00,HR-IXPWINDi_r2_v1.2.,2013-05-19 10:20:00,
2013-05-19 06:25:00,51.8,50.6,30.36,ESE,115,0.0,0.0,96,0.00,,,0.00,HR-IXPWINDi_r2_v1.2.,2013-05-19 10:25:00,
2013-05-19 06:30:00,52.4,51.2,30.36,ESE,117,0.0,0.0,96,0.00,,,0.00,HR-IXPWINDi_r2_v1.2.,2013-05-19 10:30:00,
2013-05-19 06:35:00,53.0,51.8,30.36,ESE,117,0.0,0.0,96,0.00,,,0.00,HR-IXPWINDi_r2_v1.2.,2013-05-19 10:35:00,
2013-05-19 06:40:00,53.5,52.3,30.37,SE,137,0.0,1.0,96,0.00,,,0.00,HR-IXPWINDi_r2_v1.2.,2013-05-19 10:40:00,
2013-05-19 06:46:00,53.7,52.2,30.37,SE,139,0.0,1.0,95,0.00,,,0.00,HR-IXPWINDi_r2_v1.2.,2013-05-19 10:46:00,
2013-05-19 06:51:00,54.1,52.3,30.37,SE,140,0.0,1.0,94,0.00,,,0.00,HR-IXPWINDi_r2_v1.2.,2013-05-19 10:51:00,
2013-05-19 06:56:00,54.4,52.4,30.37,SSE,165,1.0,2.0,93,0.00,,,0.00,HR-IXPWINDi_r2_v1.2.,2013-05-19 10:56:00,
2013-05-19 07:01:00,54.8,52.2,30.37,SSE,159,1.0,3.0,91,0.00,,,0.00,HR-IXPWINDi_r2_v1.2.,2013-05-19 11:01:00,
2013-05-19 07:06:00,55.2,51.9,30.37,SSW,198,1.0,3.0,89,0.00,,,0.00,HR-IXPWINDi_r2_v1.2.,2013-05-19 11:06:00,
2013-05-19 07:11:00,55.5,51.9,30.37,South,187,2.0,4.0,88,0.00,,,0.00,HR-IXPWINDi_r2_v1.2.,2013-05-19 11:11:00,
2013-05-19 07:17:00,55.7,51.8,30.37,South,190,2.0,4.0,87,0.00,,,0.00,HR-IXPWINDi_r2_v1.2.,2013-05-19 11:17:00,
2013-05-19 07:22:00,55.9,51.7,30.37,South,191,2.0,4.0,86,0.00,,,0.00,HR-IXPWINDi_r2_v1.2.,2013-05-19 11:22:00,
2013-05-19 07:27:00,56.2,52.0,30.37,SE,139,3.0,4.0,86,0.00,,,0.00,HR-IXPWINDi_r2_v1.2.,2013-05-19 11:27:00,
2013-05-19 07:32:00,56.5,52.0,30.37,SSE,160,3.0,5.0,85,0.00,,,0.00,HR-IXPWINDi_r2_v1.2.,2013-05-19 11:32:00,
2013-05-19 07:37:00,56.7,51.5,30.37,South,180,4.0,5.0,83,0.00,,,0.00,HR-IXPWINDi_r2_v1.2.,2013-05-19 11:37:00,
2013-05-19 07:43:00,56.9,52.1,30.37,SSE,158,4.0,5.0,84,0.00,,,0.00,HR-IXPWINDi_r2_v1.2.,2013-05-19 11:43:00,
2013-05-19 07:48:00,57.2,52.0,30.37,South,176,3.0,5.0,83,0.00,,,0.00,HR-IXPWINDi_r2_v1.2.,2013-05-19 11:48:00,
2013-05-19 07:53:00,57.4,51.9,30.37,SSW,200,2.0,5.0,82,0.00,,,0.00,HR-IXPWINDi_r2_v1.2.,2013-05-19 11:53:00,
2013-05-19 07:58:00,57.8,52.3,30.37,SSE,167,4.0,4.0,82,0.00,,,0.00,HR-IXPWINDi_r2_v1.2.,2013-05-19 11:58:00,
2013-05-19 08:03:00,58.0,51.8,30.37,SW,222,3.0,5.0,80,0.00,,,0.00,HR-IXPWINDi_r2_v1.2.,2013-05-19 12:03:00,
2013-05-19 08:09:00,57.8,51.3,30.37,South,172,5.0,5.0,79,0.00,,,0.00,HR-IXPWINDi_r2_v1.2.,2013-05-19 12:09:00,
2013-05-19 08:14:00,58.0,51.5,30.37,SSW,210,4.0,5.0,79,0.00,,,0.00,HR-IXPWINDi_r2_v1.2.,2013-05-19 12:14:00,
2013-05-19 08:19:00,58.3,51.4,30.37,SSW,212,4.0,6.0,78,0.00,,,0.00,HR-IXPWINDi_r2_v1.2.,2013-05-19 12:19:00,
2013-05-19 08:24:00,58.3,51.1,30.38,SSW,205,5.0,6.0,77,0.00,,,0.00,HR-IXPWINDi_r2_v1.2.,2013-05-19 12:24:00,
2013-05-19 08:29:00,58.3,51.1,30.38,SSW,200,5.0,6.0,77,0.00,,,0.00,HR-IXPWINDi_r2_v1.2.,2013-05-19 12:29:00,
2013-05-19 08:35:00,58.4,50.8,30.38,SW,228,5.0,8.0,76,0.00,,,0.00,HR-IXPWINDi_r2_v1.2.,2013-05-19 12:35:00,
2013-05-19 08:40:00,58.3,51.1,30.38,SSW,205,5.0,9.0,77,0.00,,,0.00,HR-IXPWINDi_r2_v1.2.,2013-05-19 12:40:00,
2013-05-19 08:45:00,58.5,51.3,30.38,SSW,200,5.0,9.0,77,0.00,,,0.00,HR-IXPWINDi_r2_v1.2.,2013-05-19 12:45:00,
2013-05-19 08:50:00,58.6,51.7,30.38,SSW,204,6.0,8.0,78,0.00,,,0.00,HR-IXPWINDi_r2_v1.2.,2013-05-19 12:50:00,
2013-05-19 08:56:00,58.6,51.0,30.38,SSW,211,5.0,8.0,76,0.00,,,0.00,HR-IXPWINDi_r2_v1.2.,2013-05-19 12:56:00,
2013-05-19 09:01:00,58.6,51.4,30.38,SSW,205,8.0,10.0,77,0.00,,,0.00,HR-IXPWINDi_r2_v1.2.,2013-05-19 13:01:00,
2013-05-19 09:06:00,58.5,51.3,30.38,SSW,210,6.0,10.0,77,0.00,,,0.00,HR-IXPWINDi_r2_v1.2.,2013-05-19 13:06:00,
2013-05-19 09:11:00,58.4,51.2,30.38,SSW,198,7.0,10.0,77,0.00,,,0.00,HR-IXPWINDi_r2_v1.2.,2013-05-19 13:11:00,
2013-05-19 09:16:00,58.4,51.5,30.38,SSW,203,4.0,10.0,78,0.00,,,0.00,HR-IXPWINDi_r2_v1.2.,2013-05-19 13:16:00,
2013-05-19 09:21:00,58.7,51.4,30.38,South,173,6.0,9.0,77,0.00,,,0.00,HR-IXPWINDi_r2_v1.2.,2013-05-19 13:21:00,
2013-05-19 09:26:00,58.7,51.8,30.38,SSW,210,6.0,8.0,78,0.00,,,0.00,HR-IXPWINDi_r2_v1.2.,2013-05-19 13:26:00,
2013-05-19 09:31:00,58.8,51.2,30.38,South,184,5.0,9.0,76,0.00,,,0.00,HR-IXPWINDi_r2_v1.2.,2013-05-19 13:31:00,
2013-05-19 09:36:00,58.9,52.0,30.38,SSW,198,8.0,9.0,78,0.00,,,0.00,HR-IXPWINDi_r2_v1.2.,2013-05-19 13:36:00,
2013-05-19 09:42:00,58.8,52.2,30.39,South,188,6.0,10.0,79,0.00,,,0.00,HR-IXPWINDi_r2_v1.2.,2013-05-19 13:42:00,
2013-05-19 09:47:00,59.1,51.8,30.39,SSW,212,7.0,10.0,77,0.00,,,0.00,HR-IXPWINDi_r2_v1.2.,2013-05-19 13:47:00,
2013-05-19 09:52:00,59.0,51.0,30.39,SSW,207,6.0,9.0,75,0.00,,,0.00,HR-IXPWINDi_r2_v1.2.,2013-05-19 13:52:00,
2013-05-19 09:57:00,59.1,51.8,30.39,SSW,195,6.0,9.0,77,0.00,,,0.00,HR-IXPWINDi_r2_v1.2.,2013-05-19 13:57:00,
2013-05-19 10:02:00,59.4,51.4,30.39,South,179,5.0,9.0,75,0.00,,,0.00,HR-IXPWINDi_r2_v1.2.,2013-05-19 14:02:00,
2013-05-19 10:08:00,59.9,52.6,30.39,South,179,3.0,8.0,77,0.00,,,0.00,HR-IXPWINDi_r2_v1.2.,2013-05-19 14:08:00,
2013-05-19 10:13:00,60.1,52.1,30.39,South,180,5.0,8.0,75,0.00,,,0.00,HR-IXPWINDi_r2_v1.2.,2013-05-19 14:13:00,
2013-05-19 10:18:00,59.6,51.6,30.39,SSE,155,6.0,7.0,75,0.00,,,0.00,HR-IXPWINDi_r2_v1.2.,2013-05-19 14:18:00,
2013-05-19 10:23:00,59.3,51.7,30.39,South,181,7.0,8.0,76,0.00,,,0.00,HR-IXPWINDi_r2_v1.2.,2013-05-19 14:23:00,
2013-05-19 10:28:00,59.1,51.8,30.39,SSE,165,5.0,8.0,77,0.00,,,0.00,HR-IXPWINDi_r2_v1.2.,2013-05-19 14:28:00,
2013-05-19 10:33:00,59.3,52.4,30.39,SSE,161,7.0,8.0,78,0.00,,,0.00,HR-IXPWINDi_r2_v1.2.,2013-05-19 14:33:00,
2013-05-19 10:39:00,59.1,52.2,30.39,SSE,153,7.0,8.0,78,0.00,,,0.00,HR-IXPWINDi_r2_v1.2.,2013-05-19 14:39:00,
2013-05-19 10:44:00,59.2,52.3,30.39,SSE,164,6.0,9.0,78,0.00,,,0.00,HR-IXPWINDi_r2_v1.2.,2013-05-19 14:44:00,
2013-05-19 10:49:00,59.5,52.6,30.39,SSW,194,7.0,9.0,78,0.00,,,0.00,HR-IXPWINDi_r2_v1.2.,2013-05-19 14:49:00,
2013-05-19 10:54:00,59.6,52.7,30.39,SSE,156,5.0,8.0,78,0.00,,,0.00,HR-IXPWINDi_r2_v1.2.,2013-05-19 14:54:00,
2013-05-19 10:59:00,59.9,52.6,30.39,SSW,207,5.0,9.0,77,0.00,,,0.00,HR-IXPWINDi_r2_v1.2.,2013-05-19 14:59:00,
2013-05-19 11:05:00,60.2,53.3,30.39,SSW,200,7.0,9.0,78,0.00,,,0.00,HR-IXPWINDi_r2_v1.2.,2013-05-19 15:05:00,
2013-05-19 11:10:00,60.3,53.0,30.39,South,173,8.0,9.0,77,0.00,,,0.00,HR-IXPWINDi_r2_v1.2.,2013-05-19 15:10:00,
2013-05-19 11:15:00,60.5,53.2,30.39,SSE,165,7.0,9.0,77,0.00,,,0.00,HR-IXPWINDi_r2_v1.2.,2013-05-19 15:15:00,
2013-05-19 11:21:00,60.6,52.9,30.39,SSW,201,5.0,9.0,76,0.00,,,0.00,HR-IXPWINDi_r2_v1.2.,2013-05-19 15:21:00,
2013-05-19 11:26:00,60.5,53.2,30.39,South,173,5.0,10.0,77,0.00,,,0.00,HR-IXPWINDi_r2_v1.2.,2013-05-19 15:26:00,
2013-05-19 11:31:00,61.4,54.1,30.39,SSE,161,9.0,10.0,77,0.00,,,0.00,HR-IXPWINDi_r2_v1.2.,2013-05-19 15:31:00,
2013-05-19 11:36:00,61.3,53.2,30.39,SW,222,8.0,9.0,75,0.00,,,0.00,HR-IXPWINDi_r2_v1.2.,2013-05-19 15:36:00,
2013-05-19 11:41:00,60.9,52.9,30.38,South,177,5.0,9.0,75,0.00,,,0.00,HR-IXPWINDi_r2_v1.2.,2013-05-19 15:41:00,
2013-05-19 11:46:00,61.1,53.1,30.38,South,172,6.0,9.0,75,0.00,,,0.00,HR-IXPWINDi_r2_v1.2.,2013-05-19 15:46:00,
2013-05-19 11:51:00,61.1,52.7,30.38,SSW,201,8.0,9.0,74,0.00,,,0.00,HR-IXPWINDi_r2_v1.2.,2013-05-19 15:51:00,
2013-05-19 11:57:00,60.7,53.0,30.38,SSW,193,5.0,12.0,76,0.00,,,0.00,HR-IXPWINDi_r2_v1.2.,2013-05-19 15:57:00,
2013-05-19 12:02:00,60.9,53.2,30.38,SSW,198,8.0,12.0,76,0.00,,,0.00,HR-IXPWINDi_r2_v1.2.,2013-05-19 16:02:00,
2013-05-19 12:07:00,60.9,53.6,30.38,South,169,6.0,10.0,77,0.00,,,0.00,HR-IXPWINDi_r2_v1.2.,2013-05-19 16:07:00,
2013-05-19 12:12:00,60.7,53.0,30.38,South,184,5.0,10.0,76,0.00,,,0.00,HR-IXPWINDi_r2_v1.2.,2013-05-19 16:12:00,
2013-05-19 12:17:00,60.6,52.9,30.38,South,175,7.0,11.0,76,0.00,,,0.00,HR-IXPWINDi_r2_v1.2.,2013-05-19 16:17:00,
2013-05-19 12:22:00,60.6,52.9,30.38,South,180,10.0,11.0,76,0.00,,,0.00,HR-IXPWINDi_r2_v1.2.,2013-05-19 16:22:00,
2013-05-19 12:28:00,60.3,53.0,30.38,SSW,212,7.0,11.0,77,0.00,,,0.00,HR-IXPWINDi_r2_v1.2.,2013-05-19 16:28:00,
2013-05-19 12:33:00,60.4,53.4,30.37,SSW,212,9.0,11.0,78,0.00,,,0.00,HR-IXPWINDi_r2_v1.2.,2013-05-19 16:33:00,
2013-05-19 12:38:00,60.3,53.3,30.38,SSW,205,7.0,11.0,78,0.00,,,0.00,HR-IXPWINDi_r2_v1.2.,2013-05-19 16:38:00,
2013-05-19 12:43:00,60.4,53.8,30.37,South,176,6.0,11.0,79,0.00,,,0.00,HR-IXPWINDi_r2_v1.2.,2013-05-19 16:43:00,
2013-05-19 12:48:00,60.5,53.2,30.38,SSE,159,9.0,11.0,77,0.00,,,0.00,HR-IXPWINDi_r2_v1.2.,2013-05-19 16:48:00,
2013-05-19 12:54:00,60.2,53.6,30.37,South,191,5.0,11.0,79,0.00,,,0.00,HR-IXPWINDi_r2_v1.2.,2013-05-19 16:54:00,
2013-05-19 12:59:00,60.0,53.1,30.37,SW,226,5.0,9.0,78,0.00,,,0.00,HR-IXPWINDi_r2_v1.2.,2013-05-19 16:59:00,
2013-05-19 13:04:00,59.7,53.5,30.37,South,179,4.0,9.0,80,0.00,,,0.00,HR-IXPWINDi_r2_v1.2.,2013-05-19 17:04:00,
2013-05-19 13:09:00,59.9,54.0,30.36,South,169,6.0,9.0,81,0.00,,,0.00,HR-IXPWINDi_r2_v1.2.,2013-05-19 17:09:00,
2013-05-19 13:15:00,59.6,53.0,30.36,SSW,203,6.0,9.0,79,0.00,,,0.00,HR-IXPWINDi_r2_v1.2.,2013-05-19 17:15:00,
2013-05-19 13:20:00,59.5,53.6,30.36,South,179,6.0,9.0,81,0.00,,,0.00,HR-IXPWINDi_r2_v1.2.,2013-05-19 17:20:00,
2013-05-19 13:25:00,59.3,53.1,30.36,South,189,6.0,9.0,80,0.00,,,0.00,HR-IXPWINDi_r2_v1.2.,2013-05-19 17:25:00,
2013-05-19 13:30:00,59.1,52.9,30.36,SSW,210,7.0,9.0,80,0.00,,,0.00,HR-IXPWINDi_r2_v1.2.,2013-05-19 17:30:00,
2013-05-19 13:35:00,59.0,53.1,30.36,SSW,200,6.0,8.0,81,0.00,,,0.00,HR-IXPWINDi_r2_v1.2.,2013-05-19 17:35:00,
2013-05-19 13:40:00,58.8,52.9,30.36,SSW,204,6.0,8.0,81,0.00,,,0.00,HR-IXPWINDi_r2_v1.2.,2013-05-19 17:40:00,
2013-05-19 13:46:00,58.7,52.8,30.36,SSW,195,5.0,9.0,81,0.00,,,0.00,HR-IXPWINDi_r2_v1.2.,2013-05-19 17:46:00,
2013-05-19 13:51:00,58.7,52.8,30.36,SSW,198,5.0,9.0,81,0.00,,,0.00,HR-IXPWINDi_r2_v1.2.,2013-05-19 17:51:00,
2013-05-19 13:56:00,58.6,53.1,30.35,SSW,198,6.0,9.0,82,0.00,,,0.00,HR-IXPWINDi_r2_v1.2.,2013-05-19 17:56:00,
2013-05-19 14:01:00,58.4,52.9,30.35,SSW,203,7.0,9.0,82,0.00,,,0.00,HR-IXPWINDi_r2_v1.2.,2013-05-19 18:01:00,
2013-05-19 14:06:00,58.4,53.2,30.35,SSW,193,6.0,9.0,83,0.00,,,0.00,HR-IXPWINDi_r2_v1.2.,2013-05-19 18:06:00,
2013-05-19 14:11:00,58.4,53.2,30.34,South,183,4.0,9.0,83,0.00,,,0.00,HR-IXPWINDi_r2_v1.2.,2013-05-19 18:11:00,
2013-05-19 14:17:00,58.3,53.1,30.34,SSW,195,5.0,8.0,83,0.00,,,0.00,HR-IXPWINDi_r2_v1.2.,2013-05-19 18:17:00,
2013-05-19 14:22:00,58.3,53.1,30.35,South,176,5.0,8.0,83,0.00,,,0.00,HR-IXPWINDi_r2_v1.2.,2013-05-19 18:22:00,
2013-05-19 14:27:00,58.4,53.2,30.35,SW,214,7.0,8.0,83,0.00,,,0.00,HR-IXPWINDi_r2_v1.2.,2013-05-19 18:27:00,
2013-05-19 14:32:00,58.3,53.1,30.34,SW,221,6.0,8.0,83,0.00,,,0.00,HR-IXPWINDi_r2_v1.2.,2013-05-19 18:32:00,
2013-05-19 14:37:00,58.4,53.2,30.34,SW,217,5.0,8.0,83,0.00,,,0.00,HR-IXPWINDi_r2_v1.2.,2013-05-19 18:37:00,
2013-05-19 14:43:00,58.4,53.2,30.34,SSW,203,6.0,7.0,83,0.00,,,0.00,HR-IXPWINDi_r2_v1.2.,2013-05-19 18:43:00,
2013-05-19 14:48:00,58.5,53.3,30.34,SSW,208,5.0,7.0,83,0.00,,,0.00,HR-IXPWINDi_r2_v1.2.,2013-05-19 18:48:00,
2013-05-19 14:53:00,58.4,53.2,30.34,SSW,195,5.0,7.0,83,0.00,,,0.00,HR-IXPWINDi_r2_v1.2.,2013-05-19 18:53:00,
2013-05-19 14:58:00,58.4,53.2,30.34,South,190,4.0,6.0,83,0.00,,,0.00,HR-IXPWINDi_r2_v1.2.,2013-05-19 18:58:00,
2013-05-19 15:03:00,58.2,53.0,30.34,South,179,6.0,6.0,83,0.00,,,0.00,HR-IXPWINDi_r2_v1.2.,2013-05-19 19:03:00,
2013-05-19 15:09:00,57.9,53.0,30.34,South,188,3.0,6.0,84,0.00,,,0.00,HR-IXPWINDi_r2_v1.2.,2013-05-19 19:09:00,
2013-05-19 15:14:00,57.8,53.3,30.33,South,170,4.0,6.0,85,0.00,,,0.00,HR-IXPWINDi_r2_v1.2.,2013-05-19 19:14:00,
2013-05-19 15:19:00,57.5,52.6,30.33,South,190,4.0,6.0,84,0.00,,,0.00,HR-IXPWINDi_r2_v1.2.,2013-05-19 19:19:00,
2013-05-19 15:24:00,57.4,53.2,30.33,South,179,5.0,5.0,86,0.00,,,0.00,HR-IXPWINDi_r2_v1.2.,2013-05-19 19:24:00,
2013-05-19 15:29:00,57.2,53.3,30.33,SSW,198,4.0,5.0,87,0.00,,,0.00,HR-IXPWINDi_r2_v1.2.,2013-05-19 19:29:00,
2013-05-19 15:35:00,57.1,53.2,30.33,South,170,2.0,5.0,87,0.00,,,0.00,HR-IXPWINDi_r2_v1.2.,2013-05-19 19:35:00,
2013-05-19 15:40:00,56.9,53.0,30.33,SSW,212,3.0,5.0,87,0.00,,,0.00,HR-IXPWINDi_r2_v1.2.,2013-05-19 19:40:00,
2013-05-19 15:45:00,56.7,52.8,30.33,South,183,3.0,4.0,87,0.00,,,0.00,HR-IXPWINDi_r2_v1.2.,2013-05-19 19:45:00,
2013-05-19 15:50:00,56.7,52.8,30.33,SSW,195,3.0,5.0,87,0.00,,,0.00,HR-IXPWINDi_r2_v1.2.,2013-05-19 19:50:00,
2013-05-19 15:55:00,56.6,53.0,30.34,SW,223,4.0,5.0,88,0.00,,,0.00,HR-IXPWINDi_r2_v1.2.,2013-05-19 19:55:00,
2013-05-19 16:00:00,56.5,52.9,30.33,SSW,205,3.0,5.0,88,0.00,,,0.01,HR-IXPWINDi_r2_v1.2.,2013-05-19 20:00:00,
2013-05-19 16:05:00,56.4,52.8,30.34,SSW,201,4.0,6.0,88,0.00,,,0.01,HR-IXPWINDi_r2_v1.2.,2013-05-19 20:05:00,
2013-05-19 16:10:00,56.4,53.1,30.34,SW,214,4.0,6.0,89,0.00,,,0.01,HR-IXPWINDi_r2_v1.2.,2013-05-19 20:10:00,
2013-05-19 16:16:00,56.3,53.0,30.34,SW,231,3.0,5.0,89,0.00,,,0.01,HR-IXPWINDi_r2_v1.2.,2013-05-19 20:16:00,
2013-05-19 16:21:00,56.3,53.0,30.34,SW,219,7.0,7.0,89,0.00,,,0.02,HR-IXPWINDi_r2_v1.2.,2013-05-19 20:21:00,
2013-05-19 16:26:00,56.2,52.9,30.34,SW,214,5.0,8.0,89,0.00,,,0.02,HR-IXPWINDi_r2_v1.2.,2013-05-19 20:26:00,
2013-05-19 16:31:00,56.1,52.8,30.33,SSW,212,8.0,8.0,89,0.04,,,0.02,HR-IXPWINDi_r2_v1.2.,2013-05-19 20:31:00,
2013-05-19 16:36:00,56.0,53.0,30.33,SSW,195,5.0,8.0,90,0.04,,,0.03,HR-IXPWINDi_r2_v1.2.,2013-05-19 20:36:00,
2013-05-19 16:42:00,55.7,52.7,30.33,SW,217,7.0,8.0,90,0.04,,,0.03,HR-IXPWINDi_r2_v1.2.,2013-05-19 20:42:00,
2013-05-19 16:47:00,55.6,52.6,30.33,SSW,208,6.0,8.0,90,0.05,,,0.04,HR-IXPWINDi_r2_v1.2.,2013-05-19 20:47:00,
2013-05-19 16:52:00,55.5,52.8,30.33,SW,220,5.0,8.0,91,0.05,,,0.04,HR-IXPWINDi_r2_v1.2.,2013-05-19 20:52:00,
2013-05-19 16:57:00,55.3,52.7,30.33,SSW,212,6.0,7.0,91,0.06,,,0.05,HR-IXPWINDi_r2_v1.2.,2013-05-19 20:57:00,
2013-05-19 17:02:00,55.2,52.8,30.33,South,187,5.0,7.0,92,0.06,,,0.06,HR-IXPWINDi_r2_v1.2.,2013-05-19 21:02:00,
2013-05-19 17:07:00,55.1,52.8,30.33,South,173,5.0,6.0,92,0.06,,,0.06,HR-IXPWINDi_r2_v1.2.,2013-05-19 21:07:00,
2013-05-19 17:13:00,55.0,52.9,30.33,South,174,3.0,6.0,93,0.06,,,0.06,HR-IXPWINDi_r2_v1.2.,2013-05-19 21:13:00,
2013-05-19 17:18:00,54.9,52.8,30.32,South,191,3.0,5.0,93,0.04,,,0.06,HR-IXPWINDi_r2_v1.2.,2013-05-19 21:18:00,
2013-05-19 17:23:00,54.8,52.7,30.33,South,169,5.0,5.0,93,0.04,,,0.07,HR-IXPWINDi_r2_v1.2.,2013-05-19 21:23:00,
2013-05-19 17:28:00,54.7,52.6,30.33,South,187,4.0,5.0,93,0.04,,,0.07,HR-IXPWINDi_r2_v1.2.,2013-05-19 21:28:00,
2013-05-19 17:33:00,54.7,52.9,30.32,South,179,5.0,6.0,94,0.04,,,0.08,HR-IXPWINDi_r2_v1.2.,2013-05-19 21:33:00,
2013-05-19 17:38:00,54.6,52.8,30.32,SSE,167,4.0,6.0,94,0.04,,,0.08,HR-IXPWINDi_r2_v1.2.,2013-05-19 21:38:00,
2013-05-19 17:44:00,54.5,52.7,30.32,SSE,165,3.0,6.0,94,0.07,,,0.09,HR-IXPWINDi_r2_v1.2.,2013-05-19 21:44:00,
2013-05-19 17:49:00,54.5,53.0,30.32,SSW,200,2.0,6.0,95,0.07,,,0.09,HR-IXPWINDi_r2_v1.2.,2013-05-19 21:49:00,
2013-05-19 17:54:00,54.6,53.1,30.32,SSE,160,4.0,5.0,95,0.06,,,0.10,HR-IXPWINDi_r2_v1.2.,2013-05-19 21:54:00,
2013-05-19 17:59:00,54.5,53.0,30.32,SSE,149,4.0,6.0,95,0.06,,,0.10,HR-IXPWINDi_r2_v1.2.,2013-05-19 21:59:00,
2013-05-19 18:05:00,54.4,52.9,30.32,SSE,161,3.0,6.0,95,0.06,,,0.11,HR-IXPWINDi_r2_v1.2.,2013-05-19 22:05:00,
2013-05-19 18:10:00,54.5,53.3,30.32,South,173,4.0,5.0,96,0.06,,,0.11,HR-IXPWINDi_r2_v1.2.,2013-05-19 22:10:00,
2013-05-19 18:15:00,54.5,53.3,30.32,SE,137,3.0,6.0,96,0.06,,,0.12,HR-IXPWINDi_r2_v1.2.,2013-05-19 22:15:00,
2013-05-19 18:21:00,54.5,53.3,30.32,SE,124,1.0,6.0,96,0.08,,,0.13,HR-IXPWINDi_r2_v1.2.,2013-05-19 22:21:00,
2013-05-19 18:26:00,54.5,53.3,30.32,SE,141,2.0,6.0,96,0.08,,,0.13,HR-IXPWINDi_r2_v1.2.,2013-05-19 22:26:00,
2013-05-19 18:31:00,54.6,53.4,30.32,SE,136,4.0,6.0,96,0.06,,,0.14,HR-IXPWINDi_r2_v1.2.,2013-05-19 22:31:00,
2013-05-19 18:36:00,54.9,53.7,30.32,SSE,151,4.0,5.0,96,0.06,,,0.14,HR-IXPWINDi_r2_v1.2.,2013-05-19 22:36:00,
2013-05-19 18:42:00,54.9,53.7,30.32,SE,136,3.0,6.0,96,0.05,,,0.14,HR-IXPWINDi_r2_v1.2.,2013-05-19 22:42:00,
2013-05-19 18:47:00,54.9,53.7,30.32,ESE,110,6.0,8.0,96,0.00,,,0.14,HR-IXPWINDi_r2_v1.2.,2013-05-19 22:47:00,
2013-05-19 18:52:00,54.9,54.0,30.32,SSE,148,4.0,8.0,97,0.00,,,0.14,HR-IXPWINDi_r2_v1.2.,2013-05-19 22:52:00,
2013-05-19 18:57:00,54.9,54.0,30.32,SE,141,5.0,8.0,97,0.00,,,0.14,HR-IXPWINDi_r2_v1.2.,2013-05-19 22:57:00,
2013-05-19 19:02:00,54.9,54.0,30.32,SE,141,5.0,8.0,97,0.00,,,0.14,HR-IXPWINDi_r2_v1.2.,2013-05-19 23:02:00,
2013-05-19 19:07:00,54.9,54.0,30.31,SE,139,3.0,7.0,97,0.00,,,0.14,HR-IXPWINDi_r2_v1.2.,2013-05-19 23:07:00,
2013-05-19 19:13:00,54.9,54.0,30.31,SE,132,4.0,6.0,97,0.00,,,0.14,HR-IXPWINDi_r2_v1.2.,2013-05-19 23:13:00,
2013-05-19 19:18:00,54.8,53.9,30.31,SSE,155,5.0,9.0,97,0.00,,,0.15,HR-IXPWINDi_r2_v1.2.,2013-05-19 23:18:00,
2013-05-19 19:23:00,54.9,54.0,30.30,SE,145,5.0,9.0,97,0.00,,,0.15,HR-IXPWINDi_r2_v1.2.,2013-05-19 23:23:00,
2013-05-19 19:28:00,54.8,53.9,30.30,SE,136,6.0,9.0,97,0.00,,,0.15,HR-IXPWINDi_r2_v1.2.,2013-05-19 23:28:00,
2013-05-19 19:34:00,54.7,53.8,30.30,SSE,153,4.0,9.0,97,0.00,,,0.15,HR-IXPWINDi_r2_v1.2.,2013-05-19 23:34:00,
2013-05-19 19:39:00,54.8,53.9,30.30,SSE,148,4.0,8.0,97,0.00,,,0.15,HR-IXPWINDi_r2_v1.2.,2013-05-19 23:39:00,
2013-05-19 19:44:00,54.8,53.9,30.31,SE,137,6.0,8.0,97,0.00,,,0.15,HR-IXPWINDi_r2_v1.2.,2013-05-19 23:44:00,
2013-05-19 19:50:00,54.8,53.9,30.31,SE,132,3.0,7.0,97,0.00,,,0.15,HR-IXPWINDi_r2_v1.2.,2013-05-19 23:50:00,
2013-05-19 19:55:00,54.9,54.0,30.31,SSE,150,3.0,7.0,97,0.00,,,0.15,HR-IXPWINDi_r2_v1.2.,2013-05-19 23:55:00,
2013-05-19 20:00:00,54.8,53.9,30.31,ESE,123,7.0,8.0,97,0.00,,,0.15,HR-IXPWINDi_r2_v1.2.,2013-05-20 00:00:00,
2013-05-19 20:05:00,54.9,54.0,30.31,SE,139,5.0,8.0,97,0.00,,,0.15,HR-IXPWINDi_r2_v1.2.,2013-05-20 00:05:00,
2013-05-19 20:10:00,54.8,53.9,30.30,SE,128,5.0,8.0,97,0.00,,,0.15,HR-IXPWINDi_r2_v1.2.,2013-05-20 00:10:00,
2013-05-19 20:15:00,54.8,53.9,30.30,SSE,151,7.0,8.0,97,0.00,,,0.15,HR-IXPWINDi_r2_v1.2.,2013-05-20 00:15:00,
2013-05-19 20:20:00,54.7,53.8,30.30,SE,145,4.0,9.0,97,0.00,,,0.15,HR-IXPWINDi_r2_v1.2.,2013-05-20 00:20:00,
2013-05-19 20:25:00,54.7,53.8,30.30,SE,131,5.0,9.0,97,0.00,,,0.15,HR-IXPWINDi_r2_v1.2.,2013-05-20 00:25:00,
2013-05-19 20:31:00,54.7,53.8,30.30,SE,139,4.0,8.0,97,0.00,,,0.15,HR-IXPWINDi_r2_v1.2.,2013-05-20 00:31:00,
2013-05-19 20:36:00,54.8,53.9,30.30,SE,144,3.0,10.0,97,0.00,,,0.16,HR-IXPWINDi_r2_v1.2.,2013-05-20 00:36:00,
2013-05-19 20:41:00,54.9,54.0,30.30,SSE,148,6.0,10.0,97,0.00,,,0.16,HR-IXPWINDi_r2_v1.2.,2013-05-20 00:41:00,
2013-05-19 20:46:00,54.9,54.0,30.30,SE,145,5.0,10.0,97,0.00,,,0.16,HR-IXPWINDi_r2_v1.2.,2013-05-20 00:46:00,
2013-05-19 20:51:00,54.9,54.0,30.30,South,189,3.0,10.0,97,0.00,,,0.16,HR-IXPWINDi_r2_v1.2.,2013-05-20 00:51:00,
2013-05-19 20:56:00,54.9,54.0,30.30,SE,131,5.0,10.0,97,0.00,,,0.16,HR-IXPWINDi_r2_v1.2.,2013-05-20 00:56:00,
2013-05-19 21:02:00,54.9,54.0,30.30,SSE,153,4.0,9.0,97,0.00,,,0.16,HR-IXPWINDi_r2_v1.2.,2013-05-20 01:02:00,
2013-05-19 21:07:00,54.8,53.9,30.30,SE,140,4.0,8.0,97,0.00,,,0.16,HR-IXPWINDi_r2_v1.2.,2013-05-20 01:07:00,
2013-05-19 21:12:00,54.9,54.0,30.30,SE,132,4.0,8.0,97,0.00,,,0.16,HR-IXPWINDi_r2_v1.2.,2013-05-20 01:12:00,
2013-05-19 21:17:00,54.8,53.9,30.30,ESE,117,7.0,8.0,97,0.00,,,0.16,HR-IXPWINDi_r2_v1.2.,2013-05-20 01:17:00,
2013-05-19 21:23:00,54.9,54.3,30.30,SE,126,7.0,9.0,98,0.00,,,0.16,HR-IXPWINDi_r2_v1.2.,2013-05-20 01:23:00,
2013-05-19 21:28:00,54.9,54.3,30.29,SE,145,5.0,9.0,98,0.00,,,0.16,HR-IXPWINDi_r2_v1.2.,2013-05-20 01:28:00,
2013-05-19 21:33:00,55.0,54.4,30.29,SSE,148,4.0,9.0,98,0.00,,,0.16,HR-IXPWINDi_r2_v1.2.,2013-05-20 01:33:00,
2013-05-19 21:38:00,55.1,54.5,30.29,SE,142,7.0,8.0,98,0.00,,,0.16,HR-IXPWINDi_r2_v1.2.,2013-05-20 01:38:00,
2013-05-19 21:43:00,55.2,54.6,30.29,SSE,154,4.0,9.0,98,0.00,,,0.16,HR-IXPWINDi_r2_v1.2.,2013-05-20 01:43:00,
2013-05-19 21:48:00,55.3,54.7,30.29,SE,132,6.0,9.0,98,0.00,,,0.16,HR-IXPWINDi_r2_v1.2.,2013-05-20 01:48:00,
2013-05-19 21:53:00,55.3,54.7,30.29,SSE,162,7.0,9.0,98,0.00,,,0.16,HR-IXPWINDi_r2_v1.2.,2013-05-20 01:53:00,
2013-05-19 21:59:00,55.5,54.9,30.28,SSE,155,3.0,10.0,98,0.00,,,0.16,HR-IXPWINDi_r2_v1.2.,2013-05-20 01:59:00,
2013-05-19 22:04:00,55.5,54.9,30.28,SE,137,4.0,10.0,98,0.00,,,0.16,HR-IXPWINDi_r2_v1.2.,2013-05-20 02:04:00,
2013-05-19 22:09:00,55.5,54.9,30.28,SSE,155,8.0,10.0,98,0.00,,,0.17,HR-IXPWINDi_r2_v1.2.,2013-05-20 02:09:00,
2013-05-19 22:14:00,55.5,54.9,30.28,SE,145,4.0,10.0,98,0.00,,,0.17,HR-IXPWINDi_r2_v1.2.,2013-05-20 02:14:00,
2013-05-19 22:19:00,55.5,54.9,30.28,SE,134,3.0,10.0,98,0.00,,,0.17,HR-IXPWINDi_r2_v1.2.,2013-05-20 02:19:00,
2013-05-19 22:24:00,55.6,55.0,30.27,SE,130,4.0,9.0,98,0.00,,,0.17,HR-IXPWINDi_r2_v1.2.,2013-05-20 02:24:00,
2013-05-19 22:29:00,55.6,55.0,30.27,SSE,151,7.0,9.0,98,0.00,,,0.17,HR-IXPWINDi_r2_v1.2.,2013-05-20 02:29:00,
2013-05-19 22:34:00,55.6,55.0,30.27,SE,136,4.0,9.0,98,0.00,,,0.17,HR-IXPWINDi_r2_v1.2.,2013-05-20 02:34:00,
2013-05-19 22:39:00,55.6,55.0,30.27,SE,139,3.0,8.0,98,0.00,,,0.17,HR-IXPWINDi_r2_v1.2.,2013-05-20 02:39:00,
2013-05-19 22:45:00,55.7,55.1,30.27,SE,129,4.0,10.0,98,0.00,,,0.18,HR-IXPWINDi_r2_v1.2.,2013-05-20 02:45:00,
2013-05-19 22:50:00,55.7,55.1,30.27,SE,131,4.0,10.0,98,0.00,,,0.18,HR-IXPWINDi_r2_v1.2.,2013-05-20 02:50:00,
2013-05-19 22:55:00,55.7,55.1,30.26,SE,128,4.0,9.0,98,0.06,,,0.19,HR-IXPWINDi_r2_v1.2.,2013-05-20 02:55:00,
2013-05-19 23:00:00,55.7,55.1,30.27,ESE,106,5.0,9.0,98,0.12,,,0.20,HR-IXPWINDi_r2_v1.2.,2013-05-20 03:00:00,
2013-05-19 23:05:00,55.8,55.2,30.26,SE,132,3.0,9.0,98,0.09,,,0.21,HR-IXPWINDi_r2_v1.2.,2013-05-20 03:05:00,
2013-05-19 23:11:00,55.8,55.2,30.27,SE,134,3.0,9.0,98,0.08,,,0.21,HR-IXPWINDi_r2_v1.2.,2013-05-20 03:11:00,
2013-05-19 23:16:00,55.9,55.3,30.26,ENE,68,4.0,9.0,98,0.05,,,0.21,HR-IXPWINDi_r2_v1.2.,2013-05-20 03:16:00,
2013-05-19 23:21:00,56.0,55.4,30.26,SE,131,7.0,11.0,98,0.04,,,0.22,HR-IXPWINDi_r2_v1.2.,2013-05-20 03:21:00,
2013-05-19 23:26:00,56.1,55.5,30.26,SE,143,6.0,11.0,98,0.04,,,0.22,HR-IXPWINDi_r2_v1.2.,2013-05-20 03:26:00,
2013-05-19 23:31:00,56.2,55.6,30.26,SSE,149,8.0,11.0,98,0.04,,,0.22,HR-IXPWINDi_r2_v1.2.,2013-05-20 03:31:00,
2013-05-19 23:36:00,56.2,55.6,30.26,SSE,161,9.0,10.0,98,0.00,,,0.22,HR-IXPWINDi_r2_v1.2.,2013-05-20 03:36:00,
2013-05-19 23:42:00,56.3,55.7,30.26,SSW,193,5.0,10.0,98,0.00,,,0.22,HR-IXPWINDi_r2_v1.2.,2013-05-20 03:42:00,
2013-05-19 23:47:00,56.2,55.6,30.26,SSE,156,7.0,12.0,98,0.00,,,0.23,HR-IXPWINDi_r2_v1.2.,2013-05-20 03:47:00,
2013-05-19 23:52:00,56.2,55.6,30.25,SSE,148,8.0,12.0,98,0.08,,,0.24,HR-IXPWINDi_r2_v1.2.,2013-05-20 03:52:00,
2013-05-19 23:57:00,56.2,55.6,30.25,SE,144,6.0,11.0,98,0.08,,,0.24,HR-IXPWINDi_r2_v1.2.,2013-05-20 03:57:00,